Location: Waco, TX
(31.5480°N, 97.1670°W)
Time: 22:54:48
(UTC-06:00)

ISS - Pass Details

Date: 11 November 2018
Orbit: 402 x 408 km, 51.6° (Epoch: 17 November)

Event Time Altitude Azimuth Distance (km) Brightness Sun altitude
Rises 05:50:38 0° 336° (NNW) 2,320 - -13.6°
Exits shadow 05:52:01 - 347° (NNW) 1,901 -0.7 -13.3°
Reaches altitude 10° 05:54:19 10° 19° (NNE) 1,460 -0.9 -12.8°
Maximum altitude 05:55:00 11° 31° (NNE) 1,431 -0.8 -12.7°
Drops below altitude 10° 05:55:42 10° 43° (NE) 1,460 -0.6 -12.6°
Sets 05:59:22 0° 86° (E) 2,319 1.6 -11.8°
